Погода в Ключи

Погода в Ключи : погода сейчас, прогноз погоды и архив. Всё, что Вы хотите узнать о погоде в Ключи!

Поиск расширенной информации на нашем сайте:

Другие новости

Новости СМИ2

Главная страница сайта

Новости сайта

03.07.2017

Напоминаем, что на нашем специализированном сайте Метеоцентр.Азия вы можете получить высокодетализированные автоматические прогнозы погоды по пунктам России, СНГ и мира в авиационном формате (включающие направление и скорость ветра, видимость, явления погоды, количество и форму облачности, нижнюю и верхнюю границу облачности).

Рекомендуем: 24 И 48 форма Ян-ши тайдзицюань.

Погода в Ключи - сегодня

Время (UTC), дата Ветер
(°,м/с) 
Видим.   Явления Облачность Т
(°С)
Тd
(°С)
f(%) Тe
(°С)
Pmin
(гПа)
dP
(гПа)
Po
(мм)
O2
(г/м3)
Тmin Tmax R s Состояние
почвы
21 20.11.17 220 (ЮЗ) 20000 м    10/10 600 м 
[Sc]
-1.5 -3.3 88 -2  1037.6  -0.1  764  310           
00 21.11.17 230 (ЮЗ) 20000 м    10/10 600 м кучево-дожд. 
[Cb cap]
-1.6 -4 84 -4  1037.7  0.1  764  310  -1.8    0.2  равномерный
сухой снег
100% 
03 21.11.17 220 (ЮЗ) 20000 м    9/9 600 м 
[Sc]
-1.7 -4.9 79 -4  1038.2  0.5  765  311  -2         
06 21.11.17 230 (ЮЗ) 20000 м    ясно 
-1.2 -6.3 68 -3  1038.4  0.2  765  310           
09 21.11.17 220 (ЮЗ) 20000 м    1/0 средняя 
[Ac trans]
-1 -6.9 64 -4  1038  -0.4  765  310           
12 21.11.17 200 (Ю) 20000 м    3/0 средняя 
[Ac trans]
-4.2 -6.8 82 -5  1038.7  0.5  765  314    -0.7       
15 21.11.17 210 (ЮЗ) 20000 м    ясно 
-4.4 -7.1 81 -7  1038.6  -0.1  765  314           
18 21.11.17 200 (Ю) 20000 м    ясно 
-6 -8.6 82 -7  1038.7  765  316           
21 21.11.17 190 (Ю) 20000 м    ясно 
-8 -10 85 -11  1038.4  -0.5  765  318           
00 22.11.17 170 (Ю) 20000 м    ясно 
-10.5 -12.2 87 -12  1038.5  -0.1  765  322  -11.2      равномерный
сухой снег
100% 
03 22.11.17 160 (Ю) 20000 м    ясно 
-9.3 -11.7 83 -11  1038.3  -0.1  764  320           
06 22.11.17 140 (ЮВ) 20000 м    ясно 
-3.8 -8.7 69 -5  1037.6  -0.3  764  313           
09 22.11.17 130 (ЮВ) 20000 м    8/0 верхняя 
[Cs]
-2.2 -7 70 -3  1036.6  -0.9  764  311           
12 22.11.17 140 (ЮВ) 20000 м    ясно 
-7.5 -10.2 81 -9  1036.5  -0.4  763  317    -0.7       
15 22.11.17 150 (ЮВ) 20000 м    ясно 
-8.1 -10.5 83 -10  1035.3  -1.2  762  318           
18 22.11.17 140 (ЮВ) 20000 м    ясно 
-8.8 -10.7 86 -10  1034.5  -0.9  762  318           
21 22.11.17 140 (ЮВ) 20000 м    ясно 
-7.7 -10.5 80 -10  1033.4  -1  761  317           
00 23.11.17 130 (ЮВ) 20000 м    ясно 
-10.6 -12.7 85 -12  1032.7  -0.9  760  320  -10.6      равномерный
сухой снег
100% 
03 23.11.17 150 (ЮВ) 20000 м    3/0 средняя, верхняя 
[Ac trans|Ci sp]
-10.1 -12.9 80 -13  1033  0.3  761  319  -12.2         
06 23.11.17 130 (ЮВ) 20000 м    1/0 верхняя 
[Ci sp]
-4.4 -9.7 66 -6  1032.6  0.1  761  312           
09 23.11.17 110 (В) 20000 м    ясно 
-1.6 -8.3 60 -3  1031.4  -1  760  309           
12 23.11.17 070 (В) 20000 м    ясно 
-7.3 -10.6 77 -9  1031.8  760  316    -1.5       
15 23.11.17 080 (В) 20000 м    ясно 
-9.4 -11.6 84 -11  1031.9  -0.1  760  318           
18 23.11.17 140 (ЮВ) 20000 м    ясно 
-9.5 -11.7 84 -9  1031.6  -0.3  760  318           
21 23.11.17 100 (В) 20000 м    ясно 
-11.6 -13.5 86 -11  1031.5  -0.2  759  321           
Время (UTC), дата Ветер
(°,м/с) 
Видим.   Явления Облачность Т
(°С)
Тd
(°С)
f(%) Тe
(°С)
Pmin
(гПа)
dP
(гПа)
Po
(мм)
O2
(г/м3)
Тmin Tmax R s Состояние
почвы

Для получения пояснительной информации подведите курсор к названию столбца.

ПОГОДА в Ключи - архив

Всё, что Вы хотите узнать о погоде в Ключи - удобно и подробно!

Выберите нужную дату (начиная с 1 января 2015* года) и нажмите кнопку "Найти".
Будут отображены архивные сводки погоды по пункту Ключи, начиная с указанной даты.


Отображать данные в формате CSV (для использования в таблицах Excel)


Внимание! Наш архив погоды предназначен исключительно для личного некоммерческого использования в познавательных целях. Если Вам необходимы официальные справки о состоянии погоды (для производственных, юридических, коммерческих и т.п. целей), обращайтесь в органы Росгидромета.

*Примечание: данная дата относится к архиву по метеостанциям СССР (Россия, СНГ, Балтия).
Архив по метеостанциям Зарубежной Европы и Азии (кроме Китая) хранится 10 дней, по другим регионам земного шара (Китай, Африка, Америка, Австралия, Океания) - 1 день.

Ключи - район местоположения метеостанции


Название, широта, долгота, высота метеостанции:
Ключи 52.2°ш. 79.1°д. 143 м над ур. моря [Российская Федерация]

Дополнительная информация

В oтличие oт бoльшинства пoгoдных сайтoв мы публикуем пoдрoбную метеoинфoрмацию в детальнoм прoфессиoнальнoм фoрмате.

Характеристики температуры и влажнoсти вoздуха измеряются на высoте 2 м в тени вдали oт зданий и деревьев.
Скoрoсть ветра измеряется на высoте 10 м (на урoвне рoста челoвека скoрoсть ветра ниже в 1.5-2 раза). Если метеoстанция нахoдится в гoрoде или в лесу, тo скoрoсть ветра занижена на 2-4 м/с пo сравнению с oткрытым местoм. Скoрoсть ветра над акватoриями крупных рек и oзёр, а также на вершинах хoлмoв на 2-5 м/с выше, чем в oбычных услoвиях.
Атмoсфернoе давление в разных тoчках местнoсти мoжет значительнo oтличаться oт давления на метеoстанции, в зависимoсти oт услoвий рельефа (при пoдъёме на 10 м давление пoнижается примернo на 1 мм рт.ст.).